Year,Month,Day,Hour,Minute,Value (Times are PST for windspeed in km/hr)
2012,01,26,00,00,2.10
2012,01,26,00,01,2.10
2012,01,26,00,02,1.00
2012,01,26,00,03,0.20
2012,01,26,00,04,0.00
2012,01,26,00,05,0.00
2012,01,26,00,06,0.00
2012,01,26,00,07,0.00
2012,01,26,00,08,0.00
2012,01,26,00,09,0.00
2012,01,26,00,10,0.00
2012,01,26,00,11,0.00
2012,01,26,00,12,0.00
2012,01,26,00,13,0.00
2012,01,26,00,14,0.00
2012,01,26,00,15,0.00
2012,01,26,00,16,0.00
2012,01,26,00,17,0.00
2012,01,26,00,18,0.00
2012,01,26,00,19,0.00
2012,01,26,00,20,0.00
2012,01,26,00,21,0.50
2012,01,26,00,22,0.00
2012,01,26,00,23,0.00
2012,01,26,00,24,0.00
2012,01,26,00,25,0.00
2012,01,26,00,26,1.90
2012,01,26,00,27,2.00
2012,01,26,00,28,0.00
2012,01,26,00,29,0.00
2012,01,26,00,30,0.10
2012,01,26,00,31,2.00
2012,01,26,00,32,2.60
2012,01,26,00,33,3.50
2012,01,26,00,34,3.10
2012,01,26,00,35,2.70
2012,01,26,00,36,0.10
2012,01,26,00,37,0.00
2012,01,26,00,38,0.80
2012,01,26,00,39,2.40
2012,01,26,00,40,3.00
2012,01,26,00,41,3.00
2012,01,26,00,42,2.00
2012,01,26,00,43,0.00
2012,01,26,00,44,0.00
2012,01,26,00,45,1.40
2012,01,26,00,46,1.70
2012,01,26,00,47,3.00
2012,01,26,00,48,3.90
2012,01,26,00,49,2.20
2012,01,26,00,50,0.70
2012,01,26,00,51,2.60
2012,01,26,00,52,2.90
2012,01,26,00,53,5.10
2012,01,26,00,54,3.70
2012,01,26,00,55,3.30
2012,01,26,00,56,1.10
2012,01,26,00,57,3.00
2012,01,26,00,58,5.60
2012,01,26,00,59,9.30
2012,01,26,01,00,8.30
2012,01,26,01,01,4.20
2012,01,26,01,02,3.10
2012,01,26,01,03,5.30
2012,01,26,01,04,3.90
2012,01,26,01,05,3.50
2012,01,26,01,06,4.30
2012,01,26,01,07,1.90
2012,01,26,01,08,3.60
2012,01,26,01,09,3.10
2012,01,26,01,10,2.40
2012,01,26,01,11,4.50
2012,01,26,01,12,4.50
2012,01,26,01,13,4.20
2012,01,26,01,14,0.80
2012,01,26,01,15,1.90
2012,01,26,01,16,0.20
2012,01,26,01,17,5.20
2012,01,26,01,18,2.70
2012,01,26,01,19,0.40
2012,01,26,01,20,2.20
2012,01,26,01,21,1.10
2012,01,26,01,22,0.50
2012,01,26,01,23,0.20
2012,01,26,01,24,2.50
2012,01,26,01,25,3.20
2012,01,26,01,26,8.40
2012,01,26,01,27,6.20
2012,01,26,01,28,7.40
2012,01,26,01,29,3.40
2012,01,26,01,30,0.90
2012,01,26,01,31,1.60
2012,01,26,01,32,4.70
2012,01,26,01,33,9.80
2012,01,26,01,34,13.90
2012,01,26,01,35,10.10
2012,01,26,01,36,8.00
2012,01,26,01,37,6.60
2012,01,26,01,38,10.60
2012,01,26,01,39,10.70
2012,01,26,01,40,7.20
2012,01,26,01,41,10.60
2012,01,26,01,42,16.20
2012,01,26,01,43,19.20
2012,01,26,01,44,10.60
2012,01,26,01,45,17.40
2012,01,26,01,46,17.90
2012,01,26,01,47,19.00
2012,01,26,01,48,16.00
2012,01,26,01,49,22.40
2012,01,26,01,50,33.60
2012,01,26,01,51,21.60
2012,01,26,01,52,29.90
2012,01,26,01,53,23.80
2012,01,26,01,54,37.10
2012,01,26,01,55,32.00
2012,01,26,01,56,35.20
2012,01,26,01,57,32.70
2012,01,26,01,58,36.50
2012,01,26,01,59,38.40
2012,01,26,02,00,30.80
2012,01,26,02,01,27.60
2012,01,26,02,02,35.80
2012,01,26,02,03,40.20
2012,01,26,02,04,33.60
2012,01,26,02,05,25.30
2012,01,26,02,06,23.50
2012,01,26,02,07,28.00
2012,01,26,02,08,30.60
2012,01,26,02,09,43.50
2012,01,26,02,10,30.90
2012,01,26,02,11,36.60
2012,01,26,02,12,26.80
2012,01,26,02,13,39.30
2012,01,26,02,14,31.70
2012,01,26,02,15,32.30
2012,01,26,02,16,29.40
2012,01,26,02,17,30.30
2012,01,26,02,18,43.20
2012,01,26,02,19,39.90
2012,01,26,02,20,30.20
2012,01,26,02,21,38.50
2012,01,26,02,22,37.90
2012,01,26,02,23,37.50
2012,01,26,02,24,34.40
2012,01,26,02,25,33.80
2012,01,26,02,26,34.30
2012,01,26,02,27,27.60
2012,01,26,02,28,45.90
2012,01,26,02,29,38.50
2012,01,26,02,30,33.40
2012,01,26,02,31,38.70
2012,01,26,02,32,48.50
2012,01,26,02,33,29.10
2012,01,26,02,34,36.70
2012,01,26,02,35,26.40
2012,01,26,02,36,22.40
2012,01,26,02,37,23.70
2012,01,26,02,38,17.10
2012,01,26,02,39,23.10
2012,01,26,02,40,25.10
2012,01,26,02,41,30.00
2012,01,26,02,42,19.70
2012,01,26,02,43,19.30
2012,01,26,02,44,34.00
2012,01,26,02,45,21.80
2012,01,26,02,46,20.90
2012,01,26,02,47,30.10
2012,01,26,02,48,28.50
2012,01,26,02,49,36.20
2012,01,26,02,50,31.00
2012,01,26,02,51,30.60
2012,01,26,02,52,30.00
2012,01,26,02,53,31.40
2012,01,26,02,54,31.10
2012,01,26,02,55,34.20
2012,01,26,02,56,27.10
2012,01,26,02,57,34.30
2012,01,26,02,58,30.70
2012,01,26,02,59,31.90
2012,01,26,03,00,24.80
2012,01,26,03,01,18.80
2012,01,26,03,02,18.70
2012,01,26,03,03,20.20
2012,01,26,03,04,19.50
2012,01,26,03,05,25.40
2012,01,26,03,06,16.40
2012,01,26,03,07,19.10
2012,01,26,03,08,16.20
2012,01,26,03,09,21.20
2012,01,26,03,10,11.80
2012,01,26,03,11,11.00
2012,01,26,03,12,17.30
2012,01,26,03,13,17.50
2012,01,26,03,14,9.90
2012,01,26,03,15,5.80
2012,01,26,03,16,8.10
2012,01,26,03,17,15.80
2012,01,26,03,18,8.80
2012,01,26,03,19,10.40
2012,01,26,03,20,12.60
2012,01,26,03,21,14.40
2012,01,26,03,22,9.90
2012,01,26,03,23,10.10
2012,01,26,03,24,11.60
2012,01,26,03,25,9.30
2012,01,26,03,26,14.40
2012,01,26,03,27,14.20
2012,01,26,03,28,17.70
2012,01,26,03,29,16.90
2012,01,26,03,30,9.80
2012,01,26,03,31,13.20
2012,01,26,03,32,8.80
2012,01,26,03,33,12.40
2012,01,26,03,34,11.60
2012,01,26,03,35,8.20
2012,01,26,03,36,6.90
2012,01,26,03,37,3.90
2012,01,26,03,38,3.20
2012,01,26,03,39,7.70
2012,01,26,03,40,7.20
2012,01,26,03,41,16.00
2012,01,26,03,42,13.00
2012,01,26,03,43,9.50
2012,01,26,03,44,9.70
2012,01,26,03,45,1.90
2012,01,26,03,46,0.00
2012,01,26,03,47,0.40
2012,01,26,03,48,2.50
2012,01,26,03,49,12.00
2012,01,26,03,50,11.10
2012,01,26,03,51,16.80
2012,01,26,03,52,12.20
2012,01,26,03,53,7.30
2012,01,26,03,54,7.60
2012,01,26,03,55,11.00
2012,01,26,03,56,7.70
2012,01,26,03,57,7.20
2012,01,26,03,58,10.50
2012,01,26,03,59,7.90
2012,01,26,04,00,7.20
2012,01,26,04,01,10.90
2012,01,26,04,02,9.10
2012,01,26,04,03,7.40
2012,01,26,04,04,10.10
2012,01,26,04,05,13.50
2012,01,26,04,06,8.90
2012,01,26,04,07,15.80
2012,01,26,04,08,14.80
2012,01,26,04,09,6.10
2012,01,26,04,10,15.50
2012,01,26,04,11,19.20
2012,01,26,04,12,20.30
2012,01,26,04,13,20.10
2012,01,26,04,14,25.70
2012,01,26,04,15,18.70
2012,01,26,04,16,13.00
2012,01,26,04,17,18.40
2012,01,26,04,18,20.40
2012,01,26,04,19,19.60
2012,01,26,04,20,24.20
2012,01,26,04,21,17.50
2012,01,26,04,22,11.60
2012,01,26,04,23,21.40
2012,01,26,04,24,15.20
2012,01,26,04,25,17.90
2012,01,26,04,26,15.10
2012,01,26,04,27,12.90
2012,01,26,04,28,6.40
2012,01,26,04,29,15.10
2012,01,26,04,30,9.30
2012,01,26,04,31,17.30
2012,01,26,04,32,13.80
2012,01,26,04,33,14.40
2012,01,26,04,34,10.50
2012,01,26,04,35,10.90
2012,01,26,04,36,11.90
2012,01,26,04,37,12.60
2012,01,26,04,38,18.90
2012,01,26,04,39,17.90
2012,01,26,04,40,15.40
2012,01,26,04,41,16.50
2012,01,26,04,42,16.30
2012,01,26,04,43,8.50
2012,01,26,04,44,12.00
2012,01,26,04,45,14.00
2012,01,26,04,46,12.60
2012,01,26,04,47,19.40
2012,01,26,04,48,16.20
2012,01,26,04,49,17.20
2012,01,26,04,50,9.80
2012,01,26,04,51,13.80
2012,01,26,04,52,18.10
2012,01,26,04,53,12.70
2012,01,26,04,54,10.30
2012,01,26,04,55,12.20
2012,01,26,04,56,6.60
2012,01,26,04,57,14.40
2012,01,26,04,58,15.30
2012,01,26,04,59,17.40
2012,01,26,05,00,21.70
2012,01,26,05,01,15.80
2012,01,26,05,02,11.30
2012,01,26,05,03,15.90
2012,01,26,05,04,14.70
2012,01,26,05,05,9.70
2012,01,26,05,06,12.30
2012,01,26,05,07,8.40
2012,01,26,05,08,6.60
2012,01,26,05,09,12.00
2012,01,26,05,10,10.80
2012,01,26,05,11,8.20
2012,01,26,05,12,6.80
2012,01,26,05,13,7.10
2012,01,26,05,14,11.30
2012,01,26,05,15,7.40
2012,01,26,05,16,14.90
2012,01,26,05,17,9.40
2012,01,26,05,18,16.70
2012,01,26,05,19,8.40
2012,01,26,05,20,11.40
2012,01,26,05,21,12.30
2012,01,26,05,22,9.70
2012,01,26,05,23,9.00
2012,01,26,05,24,15.80
2012,01,26,05,25,14.70
2012,01,26,05,26,13.10
2012,01,26,05,27,14.80
2012,01,26,05,28,14.90
2012,01,26,05,29,14.80
2012,01,26,05,30,18.10
2012,01,26,05,31,14.80
2012,01,26,05,32,12.50
2012,01,26,05,33,17.00
2012,01,26,05,34,11.40
2012,01,26,05,35,14.80
2012,01,26,05,36,12.60
2012,01,26,05,37,11.20
2012,01,26,05,38,5.60
2012,01,26,05,39,11.10
2012,01,26,05,40,17.40
2012,01,26,05,41,17.40
2012,01,26,05,42,14.40
2012,01,26,05,43,13.60
2012,01,26,05,44,8.90
2012,01,26,05,45,12.80
2012,01,26,05,46,8.00
2012,01,26,05,47,6.00
2012,01,26,05,48,5.60
2012,01,26,05,49,7.80
2012,01,26,05,50,3.30
2012,01,26,05,51,2.60
2012,01,26,05,52,1.40
2012,01,26,05,53,2.30
2012,01,26,05,54,4.80
2012,01,26,05,55,1.90
2012,01,26,05,56,1.10
2012,01,26,05,57,1.40
2012,01,26,05,58,3.00
2012,01,26,05,59,5.60
2012,01,26,06,00,3.90
2012,01,26,06,01,3.90
2012,01,26,06,02,6.50
2012,01,26,06,03,2.00
2012,01,26,06,04,0.40
2012,01,26,06,05,1.60
2012,01,26,06,06,3.00
2012,01,26,06,07,6.20
2012,01,26,06,08,5.90
2012,01,26,06,09,3.50
2012,01,26,06,10,0.10
2012,01,26,06,11,4.30
2012,01,26,06,12,5.60
2012,01,26,06,13,7.70
2012,01,26,06,14,4.20
2012,01,26,06,15,6.00
2012,01,26,06,16,3.00
2012,01,26,06,17,3.00
2012,01,26,06,18,2.80
2012,01,26,06,19,1.00
2012,01,26,06,20,2.00
2012,01,26,06,21,3.20
2012,01,26,06,22,1.40
2012,01,26,06,23,3.70
2012,01,26,06,24,3.80
2012,01,26,06,25,5.00
2012,01,26,06,26,3.50
2012,01,26,06,27,2.10
2012,01,26,06,28,3.70
2012,01,26,06,29,8.40
2012,01,26,06,30,2.40
2012,01,26,06,31,9.70
2012,01,26,06,32,9.10
2012,01,26,06,33,15.40
2012,01,26,06,34,10.50
2012,01,26,06,35,5.10
2012,01,26,06,36,4.50
2012,01,26,06,37,3.80
2012,01,26,06,38,3.70
2012,01,26,06,39,5.80
2012,01,26,06,40,9.80
2012,01,26,06,41,10.50
2012,01,26,06,42,11.90
2012,01,26,06,43,20.00
2012,01,26,06,44,7.20
2012,01,26,06,45,10.70
2012,01,26,06,46,9.20
2012,01,26,06,47,1.30
2012,01,26,06,48,3.50
2012,01,26,06,49,3.20
2012,01,26,06,50,7.20
2012,01,26,06,51,8.50
2012,01,26,06,52,7.30
2012,01,26,06,53,11.30
2012,01,26,06,54,6.40
2012,01,26,06,55,9.80
2012,01,26,06,56,4.30
2012,01,26,06,57,5.20
2012,01,26,06,58,7.00
2012,01,26,06,59,7.20
2012,01,26,07,00,7.60
2012,01,26,07,01,6.90
2012,01,26,07,02,9.70
2012,01,26,07,03,7.20
2012,01,26,07,04,12.00
2012,01,26,07,05,10.10
2012,01,26,07,06,5.60
2012,01,26,07,07,8.30
2012,01,26,07,08,7.00
2012,01,26,07,09,8.10
2012,01,26,07,10,5.10
2012,01,26,07,11,3.70
2012,01,26,07,12,6.00
2012,01,26,07,13,8.80
2012,01,26,07,14,9.50
2012,01,26,07,15,7.90
2012,01,26,07,16,8.90
2012,01,26,07,17,6.00
2012,01,26,07,18,5.30
2012,01,26,07,19,5.40
2012,01,26,07,20,5.90
2012,01,26,07,21,10.90
2012,01,26,07,22,6.00
2012,01,26,07,23,7.70
2012,01,26,07,24,5.60
2012,01,26,07,25,6.60
2012,01,26,07,26,7.60
2012,01,26,07,27,7.20
2012,01,26,07,28,8.70
2012,01,26,07,29,5.60
2012,01,26,07,30,10.10
2012,01,26,07,31,13.80
2012,01,26,07,32,18.20
2012,01,26,07,33,11.90
2012,01,26,07,34,7.00
2012,01,26,07,35,9.10
2012,01,26,07,36,5.10
2012,01,26,07,37,9.20
2012,01,26,07,38,14.20
2012,01,26,07,39,12.20
2012,01,26,07,40,18.70
2012,01,26,07,41,11.80
2012,01,26,07,42,9.10
2012,01,26,07,43,8.90
2012,01,26,07,44,10.10
2012,01,26,07,45,12.90
2012,01,26,07,46,9.70
2012,01,26,07,47,6.40
2012,01,26,07,48,6.20
2012,01,26,07,49,2.80
2012,01,26,07,50,3.50
2012,01,26,07,51,9.90
2012,01,26,07,52,9.70
2012,01,26,07,53,5.40
2012,01,26,07,54,6.40
2012,01,26,07,55,5.40
2012,01,26,07,56,8.10
2012,01,26,07,57,8.30
2012,01,26,07,58,8.50
2012,01,26,07,59,6.20
2012,01,26,08,00,5.70
2012,01,26,08,01,8.20
2012,01,26,08,02,11.50
2012,01,26,08,03,5.50
2012,01,26,08,04,16.20
2012,01,26,08,05,8.60
2012,01,26,08,06,10.70
2012,01,26,08,07,7.50
2012,01,26,08,08,8.00
2012,01,26,08,09,10.40
2012,01,26,08,10,11.90
2012,01,26,08,11,9.90
2012,01,26,08,12,6.00
2012,01,26,08,13,9.60
2012,01,26,08,14,8.50
2012,01,26,08,15,6.70
2012,01,26,08,16,10.10
2012,01,26,08,17,6.60
2012,01,26,08,18,6.30
2012,01,26,08,19,8.20
2012,01,26,08,20,11.00
2012,01,26,08,21,9.90
2012,01,26,08,22,9.80
2012,01,26,08,23,4.40
2012,01,26,08,24,7.10
2012,01,26,08,25,9.10
2012,01,26,08,26,10.10
2012,01,26,08,27,11.00
2012,01,26,08,28,14.20
2012,01,26,08,29,6.80
2012,01,26,08,30,11.50
2012,01,26,08,31,11.90
2012,01,26,08,32,10.20
2012,01,26,08,33,12.30
2012,01,26,08,34,11.10
2012,01,26,08,35,13.20
2012,01,26,08,36,19.20
2012,01,26,08,37,13.60
2012,01,26,08,38,10.10
2012,01,26,08,39,15.00
2012,01,26,08,40,15.30
2012,01,26,08,41,19.10
2012,01,26,08,42,14.30
2012,01,26,08,43,8.20
2012,01,26,08,44,10.60
2012,01,26,08,45,15.00
2012,01,26,08,46,11.80
2012,01,26,08,47,6.30
2012,01,26,08,48,6.00
2012,01,26,08,49,10.10
2012,01,26,08,50,7.10
2012,01,26,08,51,7.60
2012,01,26,08,52,7.80
2012,01,26,08,53,4.10
2012,01,26,08,54,5.60
2012,01,26,08,55,11.00
2012,01,26,08,56,11.40
2012,01,26,08,57,9.90
2012,01,26,08,58,13.10
2012,01,26,08,59,11.00
2012,01,26,09,00,18.40
2012,01,26,09,01,15.30
2012,01,26,09,02,8.90
2012,01,26,09,03,13.00
2012,01,26,09,04,9.40
2012,01,26,09,05,12.30
2012,01,26,09,06,7.70
2012,01,26,09,07,8.50
2012,01,26,09,08,13.30
2012,01,26,09,09,11.80
2012,01,26,09,10,16.60
2012,01,26,09,11,8.10
2012,01,26,09,12,4.50
2012,01,26,09,13,5.10
2012,01,26,09,14,9.90
2012,01,26,09,15,7.90
2012,01,26,09,16,14.90
2012,01,26,09,17,18.20
2012,01,26,09,18,14.90
2012,01,26,09,19,10.40
2012,01,26,09,20,3.70
2012,01,26,09,21,3.80
2012,01,26,09,22,2.00
2012,01,26,09,23,0.50
2012,01,26,09,24,1.30
2012,01,26,09,25,3.80
2012,01,26,09,26,13.40
2012,01,26,09,27,13.60
2012,01,26,09,28,10.80
2012,01,26,09,29,6.30
2012,01,26,09,30,5.60
2012,01,26,09,31,6.10
2012,01,26,09,32,5.30
2012,01,26,09,33,2.70
2012,01,26,09,34,2.90
2012,01,26,09,35,3.90
2012,01,26,09,36,7.30
2012,01,26,09,37,6.40
2012,01,26,09,38,4.10
2012,01,26,09,39,3.50
2012,01,26,09,40,4.70
2012,01,26,09,41,1.70
2012,01,26,09,42,0.10
2012,01,26,09,43,2.30
2012,01,26,09,44,0.90
2012,01,26,09,45,0.00
2012,01,26,09,46,0.00
2012,01,26,09,47,0.70
2012,01,26,09,48,1.10
2012,01,26,09,49,2.00
2012,01,26,09,50,2.10
2012,01,26,09,51,4.00
2012,01,26,09,52,1.40
2012,01,26,09,53,1.70
2012,01,26,09,54,4.50
2012,01,26,09,55,6.90
2012,01,26,09,56,8.30
2012,01,26,09,57,11.00
2012,01,26,09,58,10.30
2012,01,26,09,59,6.60
2012,01,26,10,00,11.80
2012,01,26,10,01,10.40
2012,01,26,10,02,9.60
2012,01,26,10,03,12.30
2012,01,26,10,04,5.70
2012,01,26,10,05,7.80
2012,01,26,10,06,8.70
2012,01,26,10,07,5.50
2012,01,26,10,08,10.50
2012,01,26,10,09,6.90
2012,01,26,10,10,9.10
2012,01,26,10,11,12.20
2012,01,26,10,12,8.90
2012,01,26,10,13,7.40
2012,01,26,10,14,5.10
2012,01,26,10,15,8.10
2012,01,26,10,16,8.50
2012,01,26,10,17,8.40
2012,01,26,10,18,4.60
2012,01,26,10,19,14.40
2012,01,26,10,20,14.10
2012,01,26,10,21,10.30
2012,01,26,10,22,8.10
2012,01,26,10,23,2.50
2012,01,26,10,24,1.60
2012,01,26,10,25,4.80
2012,01,26,10,26,2.90
2012,01,26,10,27,1.10
2012,01,26,10,28,3.60
2012,01,26,10,29,3.20
2012,01,26,10,30,8.40
2012,01,26,10,31,12.00
2012,01,26,10,32,12.70
2012,01,26,10,33,6.20
2012,01,26,10,34,3.10
2012,01,26,10,35,4.40
2012,01,26,10,36,4.70
2012,01,26,10,37,4.70
2012,01,26,10,38,6.40
2012,01,26,10,39,3.10
2012,01,26,10,40,4.30
2012,01,26,10,41,2.20
2012,01,26,10,42,2.20
2012,01,26,10,43,6.80
2012,01,26,10,44,9.70
2012,01,26,10,45,7.60
2012,01,26,10,46,5.10
2012,01,26,10,47,3.70
2012,01,26,10,48,1.80
2012,01,26,10,49,3.50
2012,01,26,10,50,5.60
2012,01,26,10,51,5.90
2012,01,26,10,52,7.70
2012,01,26,10,53,11.40
2012,01,26,10,54,8.00
2012,01,26,10,55,6.00
2012,01,26,10,56,3.90
2012,01,26,10,57,3.30
2012,01,26,10,58,1.80
2012,01,26,10,59,2.80
2012,01,26,11,00,9.30
2012,01,26,11,01,15.90
2012,01,26,11,02,9.90
2012,01,26,11,03,6.20
2012,01,26,11,04,5.30
2012,01,26,11,05,9.30
2012,01,26,11,06,7.40
2012,01,26,11,07,4.80
2012,01,26,11,08,2.90
2012,01,26,11,09,6.00
2012,01,26,11,10,4.60
2012,01,26,11,11,3.10
2012,01,26,11,12,5.20
2012,01,26,11,13,4.90
2012,01,26,11,14,2.60
2012,01,26,11,15,8.20
2012,01,26,11,16,7.80
2012,01,26,11,17,12.00
2012,01,26,11,18,11.10
2012,01,26,11,19,10.80
2012,01,26,11,20,7.70
2012,01,26,11,21,5.30
2012,01,26,11,22,15.50
2012,01,26,11,23,13.00
2012,01,26,11,24,6.00
2012,01,26,11,25,3.50
2012,01,26,11,26,5.30
2012,01,26,11,27,4.20
2012,01,26,11,28,10.00
2012,01,26,11,29,7.50
2012,01,26,11,30,3.80
2012,01,26,11,31,7.20
2012,01,26,11,32,6.40
2012,01,26,11,33,7.60
2012,01,26,11,34,6.20
2012,01,26,11,35,5.10
2012,01,26,11,36,2.10
2012,01,26,11,37,2.80
2012,01,26,11,38,1.80
2012,01,26,11,39,5.60
2012,01,26,11,40,3.40
2012,01,26,11,41,2.00
2012,01,26,11,42,4.60
2012,01,26,11,43,3.90
2012,01,26,11,44,10.10
2012,01,26,11,45,9.00
2012,01,26,11,46,5.90
2012,01,26,11,47,8.20
2012,01,26,11,48,9.60
2012,01,26,11,49,6.40
2012,01,26,11,50,5.60
2012,01,26,11,51,3.80
2012,01,26,11,52,6.60
2012,01,26,11,53,11.40
2012,01,26,11,54,3.80
2012,01,26,11,55,8.70
2012,01,26,11,56,9.70
2012,01,26,11,57,4.40
2012,01,26,11,58,6.30
2012,01,26,11,59,5.50
2012,01,26,12,00,6.90
2012,01,26,12,01,7.00
2012,01,26,12,02,12.10
2012,01,26,12,03,12.50
2012,01,26,12,04,6.00
2012,01,26,12,05,5.30
2012,01,26,12,06,13.40
2012,01,26,12,07,7.10
2012,01,26,12,08,6.30
2012,01,26,12,09,7.50
2012,01,26,12,10,4.80
2012,01,26,12,11,5.40
2012,01,26,12,12,3.00
2012,01,26,12,13,6.70
2012,01,26,12,14,8.10
2012,01,26,12,15,10.60
2012,01,26,12,16,3.10
2012,01,26,12,17,4.50
2012,01,26,12,18,5.80
2012,01,26,12,19,5.70
2012,01,26,12,20,7.20
2012,01,26,12,21,11.50
2012,01,26,12,22,9.90
2012,01,26,12,23,9.80
2012,01,26,12,24,6.60
2012,01,26,12,25,7.60
2012,01,26,12,26,13.50
2012,01,26,12,27,13.20
2012,01,26,12,28,10.90
2012,01,26,12,29,17.50
2012,01,26,12,30,15.00
2012,01,26,12,31,7.70
2012,01,26,12,32,7.80
2012,01,26,12,33,6.40
2012,01,26,12,34,3.90
2012,01,26,12,35,4.70
2012,01,26,12,36,9.40
2012,01,26,12,37,13.00
2012,01,26,12,38,10.00
2012,01,26,12,39,7.00
2012,01,26,12,40,8.20
2012,01,26,12,41,7.60
2012,01,26,12,42,10.00
2012,01,26,12,43,10.50
2012,01,26,12,44,12.50
2012,01,26,12,45,7.20
2012,01,26,12,46,9.30
2012,01,26,12,47,18.00
2012,01,26,12,48,15.90
2012,01,26,12,49,12.50
2012,01,26,12,50,8.30
2012,01,26,12,51,5.70
2012,01,26,12,52,3.50
2012,01,26,12,53,6.20
2012,01,26,12,54,8.90
2012,01,26,12,55,7.00
2012,01,26,12,56,9.40
2012,01,26,12,57,12.30
2012,01,26,12,58,11.60
2012,01,26,12,59,12.60
2012,01,26,13,00,7.50
2012,01,26,13,01,6.40
2012,01,26,13,02,6.20
2012,01,26,13,03,6.10
2012,01,26,13,04,5.10
2012,01,26,13,05,7.10
2012,01,26,13,06,4.00
2012,01,26,13,07,8.80
2012,01,26,13,08,5.60
2012,01,26,13,09,4.40
2012,01,26,13,10,4.30
2012,01,26,13,11,2.60
2012,01,26,13,12,4.00
2012,01,26,13,13,4.00
2012,01,26,13,14,4.30
2012,01,26,13,15,2.70
2012,01,26,13,16,1.70
2012,01,26,13,17,1.80
2012,01,26,13,18,1.70
2012,01,26,13,19,3.30
2012,01,26,13,20,5.80
2012,01,26,13,21,4.80
2012,01,26,13,22,4.10
2012,01,26,13,23,7.00
2012,01,26,13,24,6.20
2012,01,26,13,25,6.10
2012,01,26,13,26,8.10
2012,01,26,13,27,6.20
2012,01,26,13,28,3.10
2012,01,26,13,29,6.20
2012,01,26,13,30,6.50
2012,01,26,13,31,6.60
2012,01,26,13,32,6.80
2012,01,26,13,33,9.30
2012,01,26,13,34,5.40
2012,01,26,13,35,6.90
2012,01,26,13,36,6.00
2012,01,26,13,37,6.40
2012,01,26,13,38,6.30
2012,01,26,13,39,9.10
2012,01,26,13,40,9.90
2012,01,26,13,41,7.20
2012,01,26,13,42,9.10
2012,01,26,13,43,13.90
2012,01,26,13,44,8.90
2012,01,26,13,45,10.40
2012,01,26,13,46,10.80
2012,01,26,13,47,8.70
2012,01,26,13,48,7.50
2012,01,26,13,49,8.40
2012,01,26,13,50,11.40
2012,01,26,13,51,13.00
2012,01,26,13,52,7.20
2012,01,26,13,53,6.10
2012,01,26,13,54,9.70
2012,01,26,13,55,6.80
2012,01,26,13,56,9.90
2012,01,26,13,57,11.30
2012,01,26,13,58,11.30
2012,01,26,13,59,11.80
2012,01,26,14,00,5.70
2012,01,26,14,01,7.60
2012,01,26,14,02,6.80
2012,01,26,14,03,9.30
2012,01,26,14,04,11.70
2012,01,26,14,05,12.70
2012,01,26,14,06,7.90
2012,01,26,14,07,7.60
2012,01,26,14,08,6.40
2012,01,26,14,09,15.20
2012,01,26,14,10,10.50
2012,01,26,14,11,10.70
2012,01,26,14,12,9.30
2012,01,26,14,13,15.20
2012,01,26,14,14,10.30
2012,01,26,14,15,12.90
2012,01,26,14,16,6.00
2012,01,26,14,17,6.40
2012,01,26,14,18,8.10
2012,01,26,14,19,6.70
2012,01,26,14,20,4.80
2012,01,26,14,21,8.00
2012,01,26,14,22,11.30
2012,01,26,14,23,6.80
2012,01,26,14,24,8.50
2012,01,26,14,25,10.10
2012,01,26,14,26,6.50
2012,01,26,14,27,7.40
2012,01,26,14,28,7.00
2012,01,26,14,29,5.70
2012,01,26,14,30,6.30
2012,01,26,14,31,12.60
2012,01,26,14,32,9.00
2012,01,26,14,33,14.40
2012,01,26,14,34,14.80
2012,01,26,14,35,8.10
2012,01,26,14,36,6.30
2012,01,26,14,37,5.70
2012,01,26,14,38,6.10
2012,01,26,14,39,7.00
2012,01,26,14,40,6.60
2012,01,26,14,41,6.30
2012,01,26,14,42,4.50
2012,01,26,14,43,3.20
2012,01,26,14,44,3.20
2012,01,26,14,45,3.20
2012,01,26,14,46,4.20
2012,01,26,14,47,7.70
2012,01,26,14,48,11.00
2012,01,26,14,49,13.10
2012,01,26,14,50,10.20
2012,01,26,14,51,7.50
2012,01,26,14,52,10.20
2012,01,26,14,53,5.90
2012,01,26,14,54,9.50
2012,01,26,14,55,9.50
2012,01,26,14,56,7.00
2012,01,26,14,57,12.60
2012,01,26,14,58,9.90
2012,01,26,14,59,7.50
2012,01,26,15,00,6.80
2012,01,26,15,01,13.00
2012,01,26,15,02,8.50
2012,01,26,15,03,6.20
2012,01,26,15,04,8.30
2012,01,26,15,05,7.80
2012,01,26,15,06,6.20
2012,01,26,15,07,7.30
2012,01,26,15,08,11.00
2012,01,26,15,09,11.10
2012,01,26,15,10,14.80
2012,01,26,15,11,11.30
2012,01,26,15,12,7.20
2012,01,26,15,13,6.50
2012,01,26,15,14,9.70
2012,01,26,15,15,8.60
2012,01,26,15,16,9.70
2012,01,26,15,17,10.30
2012,01,26,15,18,6.80
2012,01,26,15,19,8.50
2012,01,26,15,20,8.10
2012,01,26,15,21,10.20
2012,01,26,15,22,11.60
2012,01,26,15,23,12.10
2012,01,26,15,24,12.00
2012,01,26,15,25,14.90
2012,01,26,15,26,11.40
2012,01,26,15,27,7.20
2012,01,26,15,28,11.60
2012,01,26,15,29,10.30
2012,01,26,15,30,7.20
2012,01,26,15,31,8.30
2012,01,26,15,32,7.20
2012,01,26,15,33,7.70
2012,01,26,15,34,6.80
2012,01,26,15,35,6.80
2012,01,26,15,36,9.80
2012,01,26,15,37,18.40
2012,01,26,15,38,12.90
2012,01,26,15,39,9.30
2012,01,26,15,40,17.40
2012,01,26,15,41,14.10
2012,01,26,15,42,7.80
2012,01,26,15,43,7.10
2012,01,26,15,44,10.50
2012,01,26,15,45,12.10
2012,01,26,15,46,10.80
2012,01,26,15,47,8.80
2012,01,26,15,48,8.10
2012,01,26,15,49,8.30
2012,01,26,15,50,14.00
2012,01,26,15,51,13.60
2012,01,26,15,52,13.00
2012,01,26,15,53,17.80
2012,01,26,15,54,15.80
2012,01,26,15,55,11.80
2012,01,26,15,56,12.50
2012,01,26,15,57,14.20
2012,01,26,15,58,17.90
2012,01,26,15,59,14.30
2012,01,26,16,00,9.30
2012,01,26,16,01,15.80
2012,01,26,16,02,14.80
2012,01,26,16,03,11.10
2012,01,26,16,04,12.20
2012,01,26,16,05,10.90
2012,01,26,16,06,9.70
2012,01,26,16,07,12.90
2012,01,26,16,08,11.40
2012,01,26,16,09,9.10
2012,01,26,16,10,11.00
2012,01,26,16,11,9.70
2012,01,26,16,12,11.20
2012,01,26,16,13,10.90
2012,01,26,16,14,14.00
2012,01,26,16,15,14.20
2012,01,26,16,16,8.90
2012,01,26,16,17,6.90
2012,01,26,16,18,14.40
2012,01,26,16,19,10.90
2012,01,26,16,20,14.20
2012,01,26,16,21,15.00
2012,01,26,16,22,16.20
2012,01,26,16,23,9.20
2012,01,26,16,24,7.90
2012,01,26,16,25,6.00
2012,01,26,16,26,8.40
2012,01,26,16,27,7.20
2012,01,26,16,28,7.40
2012,01,26,16,29,8.60
2012,01,26,16,30,13.80
2012,01,26,16,31,11.10
2012,01,26,16,32,8.80
2012,01,26,16,33,8.10
2012,01,26,16,34,10.90
2012,01,26,16,35,7.60
2012,01,26,16,36,8.40
2012,01,26,16,37,9.50
2012,01,26,16,38,11.80
2012,01,26,16,39,12.00
2012,01,26,16,40,9.80
2012,01,26,16,41,10.60
2012,01,26,16,42,13.10
2012,01,26,16,43,8.80
2012,01,26,16,44,8.20
2012,01,26,16,45,6.60
2012,01,26,16,46,8.80
2012,01,26,16,47,9.60
2012,01,26,16,48,8.00
2012,01,26,16,49,10.30
2012,01,26,16,50,9.60
2012,01,26,16,51,6.80
2012,01,26,16,52,10.90
2012,01,26,16,53,4.60
2012,01,26,16,54,5.50
2012,01,26,16,55,3.80
2012,01,26,16,56,4.50
2012,01,26,16,57,6.50
2012,01,26,16,58,8.80
2012,01,26,16,59,4.70
2012,01,26,17,00,8.20
2012,01,26,17,01,7.60
2012,01,26,17,02,6.20
2012,01,26,17,03,6.20
2012,01,26,17,04,3.50
2012,01,26,17,05,5.20
2012,01,26,17,06,5.80
2012,01,26,17,07,7.30
2012,01,26,17,08,8.90
2012,01,26,17,09,6.40
2012,01,26,17,10,3.70
2012,01,26,17,11,2.60
2012,01,26,17,12,2.80
2012,01,26,17,13,6.20
2012,01,26,17,14,5.90
2012,01,26,17,15,4.10
2012,01,26,17,16,0.20
2012,01,26,17,17,2.90
2012,01,26,17,18,4.00
2012,01,26,17,19,3.00
2012,01,26,17,20,3.10
2012,01,26,17,21,3.50
2012,01,26,17,22,4.30
2012,01,26,17,23,0.80
2012,01,26,17,24,5.60
2012,01,26,17,25,8.00
2012,01,26,17,26,8.60
2012,01,26,17,27,4.70
2012,01,26,17,28,4.30
2012,01,26,17,29,4.80
2012,01,26,17,30,1.50
2012,01,26,17,31,9.50
2012,01,26,17,32,6.90
2012,01,26,17,33,3.00
2012,01,26,17,34,4.80
2012,01,26,17,35,2.80
2012,01,26,17,36,4.30
2012,01,26,17,37,2.70
2012,01,26,17,38,4.60
2012,01,26,17,39,4.30
2012,01,26,17,40,4.40
2012,01,26,17,41,4.90
2012,01,26,17,42,2.70
2012,01,26,17,43,0.60
2012,01,26,17,44,0.00
2012,01,26,17,45,0.20
2012,01,26,17,46,2.30
2012,01,26,17,47,2.50
2012,01,26,17,48,1.30